Weather reports worldwide

Advertisment
Le Talut, France (7207): temperature & dewpoint: 12.01.2020 12:00:00 - 18.01.2020 12:00:00 (CET)Le Talut, France (7207): wind speed & gusts: 12.01.2020 12:00:00 - 18.01.2020 12:00:00 (CET)Le Talut, France (7207): wind direction: 12.01.2020 12:00:00 - 18.01.2020 12:00:00 (CET)Le Talut, France (7207): reduced air pressure: 12.01.2020 12:00:00 - 18.01.2020 12:00:00 (CET)Le Talut, France (7207): visibility: 12.01.2020 12:00:00 - 18.01.2020 12:00:00 (CET)Le Talut, France (7207): precipitation: 12.01.2020 12:00:00 - 18.01.2020 12:00:00 (CET)
Date & Time tt [°C] td [°C] ff [km/h] ff [kn] fx [km/h] fx [kn] dd ppp [hPa] vv [km] rr [mm]
18.01.2020 12:00:00 10,6 5,8 18 10 47 25 E 1025,8 - 0,0
18.01.2020 11:00:00 9,9 5,3 20 11 40 22 E 1025,8 - 0,0
18.01.2020 10:00:00 9,7 5,5 17 9 31 17 E 1026,0 - 0,0
18.01.2020 09:00:00 8,4 4,6 16 9 24 13 E 1026,5 - 0,0
18.01.2020 08:00:00 8,6 3,8 8 5 15 8 E 1027,0 - 0,0
18.01.2020 07:00:00 7,5 2,2 4 2 7 4 ENE 1027,2 - 0,0
18.01.2020 06:00:00 7,6 2,7 7 4 11 6 NNE 1027,4 - 0,0
18.01.2020 05:00:00 9,3 3,1 10 5 40 22 W 1027,9 - 0,0
18.01.2020 04:00:00 8,8 2,8 14 8 27 15 NNW 1028,1 - 0,0
18.01.2020 03:00:00 9,7 3,0 18 10 30 16 W 1028,2 - 0,0
18.01.2020 02:00:00 9,7 3,4 16 8 36 20 W 1028,1 - 0,0
18.01.2020 01:00:00 9,6 3,6 23 12 52 28 W 1028,4 - 0,0
18.01.2020 00:00:00 9,1 2,6 25 13 56 30 W 1028,2 - 0,0
17.01.2020 23:00:00 9,3 3,7 34 19 71 38 W 1028,0 - 0,0
17.01.2020 22:00:00 10,1 3,8 37 20 62 33 W 1027,6 - 0,0
17.01.2020 21:00:00 9,3 2,4 38 20 71 39 W 1027,4 - 0,0
17.01.2020 20:00:00 9,5 2,3 43 23 68 37 W 1026,9 - 0,0
17.01.2020 19:00:00 9,5 3,2 39 21 82 45 W 1026,1 15 0,0
17.01.2020 18:00:00 9,7 3,6 45 24 88 47 W 1025,4 - 0,0
17.01.2020 17:00:00 9,9 3,4 38 21 71 38 W 1024,8 - 0,0
17.01.2020 16:00:00 10,4 3,9 44 24 70 38 W 1024,5 - 0,0
17.01.2020 15:00:00 10,4 3,4 38 21 75 41 W 1023,7 - 0,0
17.01.2020 14:00:00 11,0 4,0 36 20 66 36 W 1023,2 - 0,0
17.01.2020 13:00:00 10,3 4,0 40 21 63 34 W 1022,9 15 0,0
17.01.2020 12:00:00 9,5 3,2 34 18 72 39 W 1022,7 - 0,0
17.01.2020 11:00:00 10,0 4,1 49 27 83 45 W 1021,4 - 0,0
17.01.2020 10:00:00 10,0 3,7 41 22 69 38 W 1020,4 - 0,0
17.01.2020 09:00:00 10,3 5,1 36 19 76 41 W 1019,4 - 0,0
17.01.2020 08:00:00 10,5 5,3 40 22 77 41 W 1018,1 - 0,0
17.01.2020 07:00:00 10,7 5,7 48 26 69 37 W 1016,6 8 0,0
17.01.2020 06:00:00 11,1 6,0 41 22 71 38 WSW 1015,6 - 0,0
17.01.2020 05:00:00 11,2 5,9 44 24 76 41 WSW 1015,0 - 0,0
17.01.2020 04:00:00 11,1 7,6 40 22 69 38 WSW 1015,0 - 0,0
17.01.2020 03:00:00 11,5 7,2 41 22 69 37 WSW 1014,6 - 0,0
17.01.2020 02:00:00 11,3 7,8 41 22 66 36 WSW 1013,9 - 0,0
17.01.2020 01:00:00 11,6 10,2 31 17 49 27 SW 1013,9 - 0,0
17.01.2020 00:00:00 10,5 9,4 21 11 61 33 SW 1013,4 - 0,0
16.01.2020 23:00:00 11,7 9,9 35 19 51 28 S 1013,2 - 0,0
16.01.2020 22:00:00 11,8 10,0 39 21 54 29 SSW 1013,7 - 0,0
16.01.2020 21:00:00 11,6 10,2 36 19 48 26 SSW 1014,0 - 0,0
16.01.2020 20:00:00 11,7 10,4 30 16 49 27 S 1013,7 - 0,0
16.01.2020 19:00:00 12,0 10,4 31 17 57 31 SSW 1013,8 - 0,0
16.01.2020 18:00:00 12,3 10,2 36 20 68 37 SW 1014,1 - 0,0
16.01.2020 17:00:00 12,8 10,7 23 12 40 22 S 1013,7 - 0,0
16.01.2020 16:00:00 13,1 10,5 29 16 58 31 S 1013,2 - 0,0
16.01.2020 15:00:00 12,9 10,4 31 17 72 39 S 1013,4 - 0,0
16.01.2020 14:00:00 13,2 10,6 43 23 67 36 SSE 1013,9 - 0,0
16.01.2020 13:00:00 13,3 10,3 51 28 71 38 SSE 1014,8 10 0,0
16.01.2020 12:00:00 13,2 10,0 50 27 73 39 SSE 1015,7 - 0,0
16.01.2020 11:00:00 13,0 9,8 53 29 73 39 SSE 1015,7 - 0,0
16.01.2020 10:00:00 12,8 9,8 55 30 76 41 SSE 1015,5 - 0,0
16.01.2020 09:00:00 12,4 9,9 54 29 68 37 SE 1015,8 - 0,0
16.01.2020 08:00:00 12,0 10,1 50 27 66 35 SE 1016,5 - 0,0
16.01.2020 07:00:00 11,7 9,9 46 25 59 32 SE 1016,9 - 0,0
16.01.2020 06:00:00 12,0 9,2 41 22 53 29 SE 1017,7 - 0,0
16.01.2020 05:00:00 11,6 9,0 40 21 49 27 SE 1018,5 - 0,0
16.01.2020 04:00:00 11,7 8,5 35 19 53 29 SSE 1019,5 - 0,0
16.01.2020 03:00:00 11,4 6,9 35 19 50 27 SSE 1020,1 - 0,0
16.01.2020 02:00:00 11,2 6,1 33 18 50 27 SSE 1020,4 - 0,0
16.01.2020 01:00:00 11,3 6,4 30 16 44 24 S 1020,9 - 0,0
16.01.2020 00:00:00 11,1 6,0 30 16 39 21 S 1021,3 - 0,0
15.01.2020 23:00:00 10,9 6,0 23 12 34 18 S 1021,2 - 0,0
15.01.2020 22:00:00 10,7 5,2 15 8 21 12 S 1021,4 - 0,0
15.01.2020 21:00:00 10,7 4,6 13 7 27 14 SSW 1021,7 - 0,0
15.01.2020 20:00:00 11,0 5,3 19 11 32 17 WSW 1021,4 - 0,0
15.01.2020 19:00:00 10,9 5,6 18 10 33 18 WSW 1020,5 - 0,0
15.01.2020 18:00:00 11,0 4,9 18 10 31 17 W 1019,5 - 0,0
15.01.2020 17:00:00 11,1 6,2 18 10 40 22 W 1018,5 - 0,0
15.01.2020 16:00:00 11,6 6,9 22 12 39 21 W 1017,4 - 0,0
15.01.2020 15:00:00 12,0 6,9 26 14 47 25 W 1016,2 - 0,0
15.01.2020 14:00:00 11,3 7,2 27 15 44 24 W 1015,3 - 0,0
15.01.2020 13:00:00 11,6 7,7 16 9 45 24 WNW 1014,4 15 0,0
15.01.2020 12:00:00 10,7 8,5 20 11 61 33 W 1013,4 - 0,0
15.01.2020 11:00:00 10,4 8,3 27 14 62 34 W 1011,1 - 0,0
15.01.2020 10:00:00 11,4 9,5 16 9 37 20 SW 1009,0 - 1,0
15.01.2020 09:00:00 10,6 8,7 32 17 92 50 WSW 1007,5 - 0,0
15.01.2020 08:00:00 12,8 9,4 58 31 91 49 SSW 1006,1 - 0,0
15.01.2020 07:00:00 13,5 9,2 56 30 74 40 S 1005,3 6 0,0
15.01.2020 06:00:00 13,7 9,1 55 30 73 39 S 1004,9 - 0,0
15.01.2020 05:00:00 13,6 9,2 53 29 72 39 S 1005,3 - 0,0
15.01.2020 04:00:00 13,6 9,2 47 25 74 40 S 1006,2 - 0,0
15.01.2020 03:00:00 13,6 9,0 51 28 80 43 S 1006,4 - 0,0
15.01.2020 02:00:00 13,9 8,3 50 27 77 41 S 1006,4 - 0,0
15.01.2020 01:00:00 13,6 8,8 53 28 78 42 S 1007,3 - 0,0
15.01.2020 00:00:00 14,2 8,4 52 28 76 41 S 1007,3 - 0,0
14.01.2020 23:00:00 14,3 8,3 56 30 79 43 S 1007,3 - 0,0
14.01.2020 22:00:00 13,9 8,9 51 28 70 38 S 1007,4 - 0,0
14.01.2020 21:00:00 13,3 9,7 49 26 67 36 S 1007,7 - 0,0
14.01.2020 20:00:00 13,6 9,4 51 28 90 49 S 1007,9 - 0,0
14.01.2020 19:00:00 14,2 8,4 67 36 94 51 SSW 1007,1 6 0,0
14.01.2020 18:00:00 13,3 9,0 63 34 100 54 SSW 1006,8 - 0,0
14.01.2020 17:00:00 13,0 9,1 64 35 106 58 SSW 1006,4 - 0,0
14.01.2020 16:00:00 13,2 9,3 74 40 104 56 SSW 1006,4 - 0,0
14.01.2020 15:00:00 12,7 9,7 72 39 102 55 SSW 1006,2 - 0,0
14.01.2020 14:00:00 12,8 10,0 67 36 99 54 SSW 1006,3 - 0,0
14.01.2020 13:00:00 13,3 9,9 58 32 99 54 SSW 1006,4 6 0,0
14.01.2020 12:00:00 13,2 10,6 61 33 96 52 SSW 1006,4 - 0,0
14.01.2020 11:00:00 12,6 10,7 63 34 91 49 SSW 1006,1 - 0,0
14.01.2020 10:00:00 12,7 10,9 53 29 93 50 SSW 1006,0 7 0,0
14.01.2020 09:00:00 13,2 10,7 62 34 106 57 SW 1005,2 - 0,0
14.01.2020 08:00:00 12,9 11,1 54 29 93 50 SW 1005,1 - 0,0
14.01.2020 07:00:00 12,6 11,0 52 28 89 48 SW 1005,2 6 0,0
14.01.2020 06:00:00 12,6 11,0 56 31 96 52 SW 1005,0 - 0,0
14.01.2020 05:00:00 12,8 10,9 62 34 95 51 SW 1004,9 - 0,0
14.01.2020 04:00:00 12,9 10,6 61 33 93 50 SW 1005,1 - 0,0
14.01.2020 03:00:00 12,5 10,7 57 31 93 50 SW 1005,1 - 0,0
14.01.2020 02:00:00 12,3 10,5 56 30 93 50 SW 1005,9 - 0,0
14.01.2020 01:00:00 12,2 10,3 56 31 109 59 SW 1006,2 - 0,0
14.01.2020 00:00:00 12,4 10,3 66 36 101 55 SW 1006,2 - 0,0
13.01.2020 23:00:00 12,5 10,0 61 33 95 52 SSW 1006,5 - 0,0
13.01.2020 22:00:00 12,2 9,9 70 38 95 52 SSW 1007,0 - 0,0
13.01.2020 21:00:00 12,0 9,7 52 28 86 46 SSW 1008,3 - 0,0
13.01.2020 20:00:00 12,2 9,6 55 30 96 52 SSW 1009,1 - 0,0
13.01.2020 19:00:00 12,8 9,1 70 38 102 55 SSW 1008,6 9 0,0
13.01.2020 18:00:00 12,8 9,4 58 32 92 50 SSW 1008,9 - 0,0
13.01.2020 17:00:00 11,9 10,1 54 29 95 51 SSW 1009,7 - 0,0
13.01.2020 16:00:00 12,4 9,4 54 29 80 43 SSW 1010,4 12 0,0
13.01.2020 15:00:00 12,4 9,6 58 31 80 43 SSW 1011,7 - 0,0
13.01.2020 14:00:00 12,3 9,7 57 31 81 44 SSW 1012,8 - 0,0
13.01.2020 13:00:00 12,2 9,9 56 30 75 40 SSW 1013,9 12 0,0
13.01.2020 12:00:00 12,0 9,9 54 29 73 40 SSW 1015,1 - 0,0
13.01.2020 11:00:00 11,6 9,5 45 25 61 33 S 1016,1 - 0,0
13.01.2020 10:00:00 10,9 8,5 44 24 61 33 SSW 1017,1 - 0,0
13.01.2020 09:00:00 10,9 8,1 36 19 51 28 SSW 1018,0 - 0,0
13.01.2020 08:00:00 10,8 8,7 32 18 43 23 SSW 1018,6 - 0,0
13.01.2020 07:00:00 10,7 7,9 26 14 40 22 S 1019,1 20 0,0
13.01.2020 06:00:00 10,4 7,1 29 16 43 23 S 1019,7 - 0,0
13.01.2020 05:00:00 10,8 7,3 29 16 37 20 S 1020,9 - 0,0
13.01.2020 04:00:00 11,0 7,7 19 11 34 18 SW 1022,0 - 0,0
13.01.2020 03:00:00 11,1 8,1 24 13 37 20 SW 1022,8 - 0,0
13.01.2020 02:00:00 10,9 7,6 16 9 39 21 SW 1023,9 - 0,0
13.01.2020 01:00:00 10,3 7,0 20 11 44 24 SW 1025,0 - 0,0
13.01.2020 00:00:00 11,4 7,1 21 11 34 19 WSW 1025,4 - 0,0
12.01.2020 23:00:00 11,2 7,3 19 10 34 18 WSW 1025,8 - 0,0
12.01.2020 22:00:00 11,1 7,4 17 9 29 16 WSW 1026,2 - 0,0
12.01.2020 21:00:00 11,2 7,5 13 7 23 12 WSW 1026,5 - 0,0
12.01.2020 20:00:00 11,1 6,8 14 7 26 14 WSW 1027,0 - 0,0
12.01.2020 19:00:00 11,3 7,8 16 9 32 17 W 1027,1 - 0,0
12.01.2020 18:00:00 11,5 8,4 16 9 28 15 WSW 1027,1 - 0,0
12.01.2020 17:00:00 11,9 8,7 16 9 32 17 W 1026,9 - 0,0
12.01.2020 16:00:00 12,6 9,2 21 11 32 18 W 1026,7 - 0,0
12.01.2020 15:00:00 12,8 9,4 20 11 39 21 W 1026,8 - 0,0
12.01.2020 14:00:00 12,8 9,6 22 12 36 19 WSW 1026,9 - 0,0
12.01.2020 13:00:00 12,6 9,8 22 12 37 20 W 1027,5 20 0,0
12.01.2020 12:00:00 12,4 9,9 22 12 37 20 W 1027,9 - 0,0

tt = temperature
td = dewpoint
ff = wind speed
fx = gusts
dd = wind direction
ppp = reduced air pressure
vv = visibility
rr = precipitation

Next stations